Regional Weather Roundup
Issued by NWS

Home | Current Version | Previous Version | Text Only | Print | Product List | Glossary On
Versions: 1 2 3 4 5 6 7 8 9 10 11 12 13 14 15 16 17 18 19 20 21 22 23 24 25 26 27 28 29 30 31 32 33 34 35 36 37 38 39 40 41 42 43 44 45 46 47 48 49 50
000
ASUS43 KDTX 180010
RWRMI
MICHIGAN HOURLY REGIONAL WEATHER ROUNDUP
NATIONAL WEATHER SERVICE DETROIT/PONTIAC MI
700 PM EST TUE JAN 17 2017

NOTE: "FAIR" INDICATES FEW OR NO CLOUDS BELOW 12,000 FEET WITH NO
SIGNIFICANT WEATHER AND/OR OBSTRUCTION TO VISIBILITY.

MIZ047>049-052>055-059>063-066>070-074>076-081>083-180100-
SOUTHEAST LOWER MICHIGAN

CITY           SKY/WX    TMP DP  RH WIND       PRES   REMARKS
ADRIAN         CLOUDY    40  39  97 W9G18     29.89R WCI  34
6HR MIN TEMP:  40; 6HR MAX TEMP:  47;

ALMA           CLOUDY    34  34  99 W6        29.87R FOG     WCI  29
ANN ARBOR      CLOUDY    40  39  97 W13       29.86R WCI  32
BAD AXE        FOG       34  34 100 W5        29.83R VSB 1/4 WCI  30
6HR MIN TEMP:  34; 6HR MAX TEMP:  36;

CARO           FOG       34  34  99 W8        29.84R VSB 3/4 WCI  27
DETROIT CITY   CLOUDY    43  43 100 W13G18    29.84R
DETROIT        CLOUDY    43  40  89 W13       29.87R
6HR MIN TEMP:  43; 6HR MAX TEMP:  48;

FLINT          CLOUDY    36  35  96 W10       29.86R FOG     WCI  28
6HR MIN TEMP:  36; 6HR MAX TEMP:  37; 6HR PCP:  0.01;

GROSSE ILE     CLOUDY    42  40  91 W10G18    29.85R
6HR MIN TEMP:  42; 6HR MAX TEMP:  48;

HILLSDALE      FOG       36  36 100 W9        29.87S VSB 3/4 WCI  29
HOWELL         CLOUDY    38  37  96 W10       29.85R FOG     WCI  31

CITY           SKY/WX    TMP DP  RH WIND       PRES   REMARKS
JACKSON        CLOUDY    38  36  92 W9        29.87R FOG     WCI  31
6HR MIN TEMP:  38; 6HR MAX TEMP:  44;

LAMBERTVILLE   CLOUDY    44  41  89 W8G17     29.89R
6HR MIN TEMP:  44; 6HR MAX TEMP:  50;

LANSING        CLOUDY    38  35  89 W10       29.87R FOG     WCI  31
6HR MIN TEMP:  36; 6HR MAX TEMP:  39;

LAPEER         CLOUDY    37  37 100 W10       29.83R FOG     WCI  29
6HR MIN TEMP:  35; 6HR MAX TEMP:  37;

MASON          CLOUDY    37  37 100 W5        29.86S FOG     WCI  33
MONROE         CLOUDY    42  41  96 W13       29.87R
6HR MIN TEMP:  42; 6HR MAX TEMP:  49;

MT. CLEMENS    CLOUDY    42  42 100 W9        29.81R
6HR MIN TEMP:  39; 6HR MAX TEMP:  43; 6HR PCP:  0.01;

PONTIAC        DRIZZLE   39  37  92 W10       29.82R FOG     WCI  32
6HR MIN TEMP:  35; 6HR MAX TEMP:  41; 6HR PCP: TRACE;

PORT HOPE        N/A     35  35 100 CALM      29.80R
6HR MIN TEMP:  34; 6HR MAX TEMP:  35;

PORT HURON     CLOUDY    39  39 100 W7        29.83R WCI  34
TRI CITIES     FOG       35  35 100 W7        29.86R VSB 1/8 WCI  29
6HR MIN TEMP:  34; 6HR MAX TEMP:  36;

MIDLAND        FOG       36  35  96 W3        29.85R VSB 1/2
6HR MIN TEMP:  35; 6HR MAX TEMP:  37;

TROY           CLOUDY    41  39  91 W8G16     29.85S FOG
SAGINAW HB     FOG       36  32  87 W6        29.85R VSB 3/4 WCI  31
$$
MIZ043>046-050>051-056>058-064>065-071>073-077>080-180100-
SOUTHWEST LOWER MICHIGAN

CITY           SKY/WX    TMP DP  RH WIND       PRES   REMARKS
BATTLE CREEK   CLOUDY    38  37  97 W12       29.89R WCI  30
6HR MIN TEMP:  38; 6HR MAX TEMP:  40;

BENTON HARBOR  CLOUDY    38  36  92 SW14      29.93R FOG     WCI  30
6HR MIN TEMP:  38; 6HR MAX TEMP:  39;

BIG RAPIDS     MIX PCPN  33  32  96 SW8       29.85R VSB 3/4 WCI  26
6HR MIN TEMP:  33; 6HR MAX TEMP:  35;

COLDWATER      FOG       38  38 100 W7        29.90R VSB 1   WCI  32
6HR MIN TEMP:  38; 6HR MAX TEMP:  43;

FREMONT        LGT RAIN  35  35 100 SW5       29.86R WCI  31
HOLLAND        CLOUDY    37  36  96 W12       29.90R WCI  29
6HR MIN TEMP:  37; 6HR MAX TEMP:  38;

GRAND RAPIDS   DRIZZLE   37  35  92 W14       29.88R FOG     WCI  28
6HR MIN TEMP:  35; 6HR MAX TEMP:  37; 6HR PCP: TRACE;

IONIA          LGT RAIN  36  36 100 W7        29.86R WCI  30
6HR MIN TEMP:  34; 6HR MAX TEMP:  36;

KALAMAZOO      FOG       38  35  89 SW9       29.91R VSB 1   WCI  31
6HR MIN TEMP:  38; 6HR MAX TEMP:  40;

LUDINGTON      FOG       34  34 100 CALM      29.86R VSB 1/4
6HR MIN TEMP:  34; 6HR MAX TEMP:  36; 6HR PCP:  0.04;

MARSHALL       CLOUDY    37  37  97 W9        29.88S WCI  31
6HR MIN TEMP:  37; 6HR MAX TEMP:  42;

MOUNT PLEASANT FOG       34  34  99 CALM      29.86R VSB 3/4
6HR MIN TEMP:  34; 6HR MAX TEMP:  35;

MUSKEGON       DRIZZLE   37  36  96 W10       29.89R FOG     WCI  30
6HR MIN TEMP:  37; 6HR MAX TEMP:  38; 6HR PCP: TRACE;

SOUTH HAVEN    CLOUDY    38  37  99 W10       29.92R FOG     WCI  30
$$
MIZ016>042-180100-
NORTHERN LOWER MICHIGAN

CITY           SKY/WX    TMP DP  RH WIND       PRES   REMARKS
ALPENA         CLOUDY    34  33  96 N7        29.86R FOG     WCI  28
6HR MIN TEMP:  34; 6HR MAX TEMP:  35; 6HR PCP: TRACE;

BEAVER ISLAND  CLOUDY    32  32 100 E6        29.89F WCI  26
BELLAIRE       CLOUDY    34  33  97 CALM      29.87R
6HR MIN TEMP:  34; 6HR MAX TEMP:  36;

CADILLAC       CLOUDY    34  33  95 CALM      29.82S FOG
CHARLEVOIX     CLOUDY    33  33 100 NE6       29.91R WCI  27
6HR MIN TEMP:  33; 6HR MAX TEMP:  35;

FRANKFORT      CLOUDY    35  35 100 CALM      29.87R FOG
GAYLORD        FOG       34  31  88 N6        29.83S VSB 1   WCI  29
6HR MIN TEMP:  33; 6HR MAX TEMP:  34; 6HR PCP: TRACE;

GRAYLING       CLOUDY    33  33  98 CALM      29.84S FOG
6HR MIN TEMP:  33; 6HR MAX TEMP:  34;

HARBOR SPRINGS CLOUDY    32  31  95 NE8       29.88R WCI  25
HOUGHTON LAKE  CLOUDY    34  32  92 N3        29.83S FOG
6HR MIN TEMP:  33; 6HR MAX TEMP:  35;

MANISTEE       FOG       35  34  96 CALM      29.86R VSB 1/2
OSCODA         FOG       36  35  96 N7        29.82S VSB 1   WCI  30
6HR MIN TEMP:  35; 6HR MAX TEMP:  36;

PELLSTON       CLOUDY    32  29  88 NE6       29.90R WCI  26
6HR MIN TEMP:  32; 6HR MAX TEMP:  34; 6HR PCP: TRACE;

ROGERS CITY    CLOUDY    34  32  94 NE8       29.88S FOG     WCI  27
TRAVERSE CITY  CLOUDY    36  34  92 CALM      29.86R FOG
6HR MIN TEMP:  35; 6HR MAX TEMP:  37; 6HR PCP: TRACE;

$$
MIZ007>008-015-180100-
EASTERN UPPER MICHIGAN

CITY           SKY/WX    TMP DP  RH WIND       PRES   REMARKS
KINROSS        CLOUDY    32  27  81 CALM      29.90R
6HR MIN TEMP:  32; 6HR MAX TEMP:  34;

MACKINAC ISLAN CLOUDY    32  32 100 E12       29.88S WCI  23
6HR MIN TEMP:  31; 6HR MAX TEMP:  33;

NEWBERRY       CLOUDY    32  28  87 N3        29.89F
6HR MIN TEMP:  32; 6HR MAX TEMP:  34;

S. S. MARIE    CLOUDY    35  26  69 CALM      29.89R
6HR MIN TEMP:  35; 6HR MAX TEMP:  37; 6HR PCP: TRACE;

MUNISING         N/A     34  30  85 MISG      29.90S
6HR MIN TEMP:  33; 6HR MAX TEMP:  35;

$$
MIZ004>006-011>014-085-180100-
CENTRAL UPPER MICHIGAN

CITY           SKY/WX    TMP DP  RH WIND       PRES   REMARKS
MANISTIQUE     CLOUDY    32  32  99 CALM      29.90S
6HR MIN TEMP:  32; 6HR MAX TEMP:  34;

ESCANABA       CLOUDY    34  33  96 N3        29.92R
6HR MIN TEMP:  34; 6HR MAX TEMP:  35; 6HR PCP: TRACE;

SAWYER-GWINN   PTCLDY    32  27  80 CALM      29.89S
$$
MIZ001>003-009>011-084-180100-
WESTERN UPPER MICHIGAN

CITY           SKY/WX    TMP DP  RH WIND       PRES   REMARKS
IRON MOUNTAIN  CLOUDY    34  30  85 CALM      29.88S
6HR MIN TEMP:  34; 6HR MAX TEMP:  38;

HOUGHTON       CLOUDY    28  23  81 CALM      29.88F
6HR MIN TEMP:  25; 6HR MAX TEMP:  39;

COPPER HARBOR    N/A     29  27  92 SW5       29.90S WCI  24
6HR MIN TEMP:  28; 6HR MAX TEMP:  38;

IRONWOOD       CLEAR     26  23  88 CALM      29.91F
6HR MIN TEMP:  26; 6HR MAX TEMP:  38;

$$

ABBREVIATIONS USED IN REMARKS
   TC - TEMPERATURE IN CELSIUS
  WCI - WIND CHILL INDEX
   HX - HEAT INDEX
  VSB - VISIBILITY





USA.gov is the U.S. government's official web portal to all federal, state and local government web resources and services.